Regional Weather Roundup
Issued by NWS Memphis, TN

Home | Current Version | Previous Version | Text Only | Print | Product List | Glossary On
Versions: 1 2 3 4 5 6 7 8 9 10 11 12 13 14 15 16 17 18 19 20 21 22 23 24 25 26 27 28 29 30 31 32 33 34 35 36 37 38 39 40 41 42 43 44 45 46 47 48 49 50
000
ASUS44 KMEG 181410
RWRMEG
MEMPHIS CWA HOURLY WEATHER ROUNDUP
NATIONAL WEATHER SERVICE MEMPHIS TN
800 AM CST THU DEC 18 2014

...WEST TENNESSEE...

CITY           SKY/WX    TMP DP  RH WIND       PRES   REMARKS
MEMPHIS INTL   CLOUDY    39  35  86 E6        30.23S FOG     WCI  35
NWS MEMPHIS      N/A     38 N/A N/A MISG        N/A
JACKSON        CLOUDY    37  34  87 CALM      30.25R FOG
LEXINGTON      CLOUDY    34  34 100 NE3       30.22R
SAVANNAH       CLOUDY    37  36  93 CALM      30.24R
DYERSBURG      CLOUDY    36  25  64 E5        30.27S WCI  32
UNION CITY     CLOUDY    32  32 100 CALM      30.25R
PARIS          CLOUDY    30  30 100 E3        30.25R
HUNTINGDON     CLOUDY    32  31  96 E5        30.25S WCI  27


...EASTERN ARKANSAS...

CITY           SKY/WX    TMP DP  RH WIND       PRES   REMARKS
JONESBORO      CLOUDY    37  36  96 NE6       30.26R FOG     WCI  32
WEST MEMPHIS   CLOUDY    38  37  97 E3        30.24R
BATESVILLE     CLOUDY    36  34  93 CALM      30.25R
NEWPORT        CLOUDY    37  36  93 NE9       30.26F FOG     WCI  31
WALNUT RIDGE   CLOUDY    36  32  87 NE7       30.25F WCI  30
BLYTHEVILLE    CLOUDY    37  35  92 E6        30.26R WCI  32
SEARCY         CLOUDY    37  36  96 NE7       30.26S WCI  32
STUTTGART      CLOUDY    39  36  87 NE6       30.24R WCI  35
PINE BLUFF     CLOUDY    40  37  89 E6        30.22R
MONTICELLO     CLOUDY    41  39  93 SE5       30.21R


...NORTH MISSISSIPPI...

CITY           SKY/WX    TMP DP  RH WIND       PRES   REMARKS
TUPELO         CLOUDY    41  36  82 CALM      30.22R
OXFORD         CLOUDY    37  36  93 N3        30.25R
OLIVE BRANCH   CLOUDY    36  36 100 E5        30.23S FOG     WCI  32
TUNICA         CLOUDY    39  36  87 NE3       30.25R
CLARKSDALE     CLOUDY    39  39 100 E5        30.24R
CORINTH        CLOUDY    39  36  87 CALM      30.23R
GRENADA        RAIN      39  37  93 CALM      30.24F
GREENWOOD      LGT RAIN  42  42 100 NE5       30.24R FOG
COLUMBUS       CLOUDY    41  34  75 SE8       30.21F
STARKVILLE     CLOUDY    41  36  81 E5        30.21F
GOLDEN TRIANGL CLOUDY    41  34  75 E5        30.22R


...SOUTHEAST MISSOURI...

CITY           SKY/WX    TMP DP  RH WIND       PRES   REMARKS
WEST PLAINS    CLOUDY    33  31  92 SE5       30.22S FOG     WCI  29
POPLAR BLUFF   CLOUDY    34  32  92 NE6       30.26S FOG     WCI  29
CAPE GIRARDEAU CLOUDY    33  32  96 NE3       30.29R FOG


...NORTHWEST ALABAMA...

CITY           SKY/WX    TMP DP  RH WIND       PRES   REMARKS
MUSCLE SHOALS  CLOUDY    39  33  79 CALM      30.24R


...MIDDLE TENNESSEE...

CITY           SKY/WX    TMP DP  RH WIND       PRES   REMARKS
NASHVILLE      CLOUDY    34  31  88 N3        30.25S FOG
CLARKSVILLE    CLOUDY    32  30  92 NE3       30.25F


...WESTERN KENTUCKY...

CITY           SKY/WX    TMP DP  RH WIND       PRES   REMARKS
PADUCAH        CLOUDY    33  30  88 NE5       30.28R WCI  29
FORT CAMPBELL  CLOUDY    32  29  90 N6        30.25R WCI  26


...CENTRAL ARKANSAS...

CITY           SKY/WX    TMP DP  RH WIND       PRES   REMARKS
LITTLE ROCK    CLOUDY    39  35  86 NE3       30.24R FOG


SKY/WX REPORTED AS FAIR MEANS FEW OR NO CLOUDS BELOW
12 THOUSAND FEET.



USA.gov is the U.S. government's official web portal to all federal, state and local government web resources and services.